Orbital Elements
Epoch 2010 Dec. 30.0 TT = JDT 2455560.5
T 2010 Dec. 16.27113 TT MPC
q 3.9311657 (2000.0) P Q
z -0.0020493 Peri. 60.65395 +0.02763020 -0.87612616
+/-0.0000005 Node 321.00846 -0.94852654 +0.12897900
e 1.0080560 Incl. 130.10048 +0.31549005 +0.46450766
From 884 observations 2009 Oct. 22-2012 Apr. 27, mean residual 0".5.
|